www.pogodaiklimat.ru

Погода и климат >> Архив погоды >> Бельгия >> Charleroi


ПОГОДА в Charleroi

  • Прогноз погоды в Charleroi
  • Монитор погоды в Charleroi
  • Климат города

АРХИВ ПОГОДЫ в Charleroi

Время (UTC), дата Ветер
(напр.,м/с)
 
Видим.   Явления Облачность Т
(С)
Тd
(С)
f
(%)
Тe
(С)
Тes
(С)
Комфортность P
(гПа)
Po
(гПа)
Тmin
(С)
Tmax
(С)
R
(мм)
R24
(мм)
S
(см)
01 16.06 ЮЗ 1
{2}
15 км 5/1 1500 м
[Sc Ci sp]
+13.2 +11.6 90 +13 +13 1016.8 994.4
02 16.06 З 3
{3}
15 км 6/3 1500 м
[Sc Ci sp]
+12.9 +11.5 91 +11 +11 1017.1 994.6
03 16.06 З 2
{4}
9000 м 8/3 1500 м
[Sc Ci sp]
+12.1 +11.0 93 +11 +11 1016.6 994.1
04 16.06 З 2
{4}
12 км 9/4 1440 м
[Sc Ci sp]
+12.2 +9.7 85 +11 +11 1016.6 994.1
05 16.06 ЮЗ 2
{3}
20 км 9/8 1410 м
[Cu Sc]
+12.8 +9.5 80 +12 +12 1016.6 994.1
06 16.06 З 2
{4}
20 км 8/8 1320 м
[Cu Sc]
+13.4 +9.5 77 +13 +13 1016.7 994.3 +11.9
07 16.06 ЮЗ 1
{4}
20 км 9/5 1320 м
[Cu Sc Ci sp]
+14.7 +8.2 65 +15 +18 1016.5 994.2
08 16.06 Ю 2
{3}
20 км 9/5 1320 м
[Cu Sc Ci sp]
+16.7 +9.6 63 +17 +21 1016.1 994.0
09 16.06 З 3
{7}
20 км 9/6 1300 м
[Sc Ci sp]
+15.7 +8.8 64 +15 +19 1016.9 994.7
10 16.06 З 3
{7}
20 км 9/5 1230 м
[Sc Ci sp]
+17.8 +8.6 55 +18 +23 1016.7 994.7
11 16.06 З 2
{5}
30 км 6/1 1260 м
[Sc Ac trans Ci fib]
+19.4 +7.6 46 +21 +32 комфорт 1016.1 994.2
12 16.06 З 3
{7}
30 км 8/6 1300 м
[Cu Sc Ci fib]
+20.5 +9.8 50 +22 +28 комфорт 1015.5 993.7
13 16.06 З 5
{8}
30 км 9/6 1320 м
[Sc Ac trans Ci fib]
+20.5 +10.3 52 +22 +24 комфорт 1015.2 993.4
14 16.06 ЮЗ 4
{8}
30 км 9/9 1110 м
[Sc]
+19.0 +10.7 59 +20 +21 1015.6 993.6
15 16.06 З 4
{8}
30 км 9/8 930 м
[Cu Sc]
+18.9 +11.2 61 +20 +21 1015.8 993.8
16 16.06 З 5
{8}
30 км 8/8 1050 м
[Cu Sc]
+18.8 +10.4 58 +19 +20 1015.8 993.8
17 16.06 З 5
{9}
30 км 8/8 1230 м
[Cu Sc Ac trans]
+18.7 +9.7 56 +19 +19 1015.9 993.9
18 16.06 З 3
{9}
30 км 8/8 1200 м
[Cu Sc]
+18.2 +9.9 58 +19 +19 1016.1 994.1 +21.4
19 16.06 З 2
{6}
30 км 5/4 1200 м
[Cu Sc Ci sp]
+17.4 +9.7 61 +18 +18 1016.4 994.4
20 16.06 З 3
{5}
30 км 4/4 1200 м
[Cu Sc Ci sp]
+15.9 +9.7 67 +15 +15 1016.9 994.7
21 16.06 З 3
{6}
20 км 1/1 1200 м
[Cu hum Ci fib]
+14.6 +8.5 67 +14 +14 1017.3 995.0
22 16.06 З 3
{4}
20 км 4/4 1350 м
[Sc]
+14.3 +8.8 69 +13 +13 1017.5 995.1
23 16.06 ЮЗ 2
{4}
20 км 6/6 1260 м
[Sc]
+14.5 +9.2 70 +14 +14 1017.5 995.2
00 17.06 ЮЗ 3
{6}
20 км 6/6 1260 м
[Sc]
+14.2 +9.3 72 +13 +13 1017.2 994.9
01 17.06 ЮЗ 3
{4}
20 км 8/8 1140 м
[Sc]
+14.3 +9.6 73 +13 +13 1017.4 995.1
02 17.06 ЮЗ 3
{5}
20 км 8/8 1020 м
[Sc]
+14.0 +9.9 76 +13 +13 1017.4 995.0
03 17.06 ЮЗ 4
{6}
20 км 8/8 800 м
[Sc]
+13.9 +10.2 78 +12 +12 1017.8 995.4
04 17.06 ЮЗ 5
{7}
20 км 8/8 900 м
[Cu Sc]
+13.5 +10.6 83 +12 +12 1018.1 995.7
05 17.06 ЮЗ 4
{7}
20 км 8/3 360 м
[St Ci sp]
+13.3 +10.3 82 +12 +12 1018.0 995.6
06 17.06 ЮЗ 5
{8}
20 км 9/5 1170 м
[Sc Ci sp]
+13.3 +9.2 76 +11 +12 1018.1 995.7 +13.0
07 17.06 ЮЗ 6
{9}
20 км 8/1 660 м
[Cu hum Ci sp]
+13.8 +8.9 72 +12 +13 1018.6 996.2
08 17.06 З 6
{9}
20 км 9/4 750 м
[Cu hum Ci sp]
+14.8 +8.6 66 +13 +15 1019.0 996.7
09 17.06 ЮЗ 6
{10}
20 км 9/9 800 м
[Cu Sc]
+14.4 +8.0 65 +13 +13 1019.2 996.8
10 17.06 ЮЗ 6
{10}
20 км 9/6 870 м
[Cu Sc Ac trans]
+15.8 +8.9 64 +14 +16 1019.1 996.8
11 17.06 З 5
{9}
20 км 9/5 840 м
[Cu Sc Ac trans]
+15.1 +8.3 64 +14 +16 1019.5 997.1
12 17.06 ЮЗ 6
{10}
25 км 9/5 840 м
[Cu Sc Ac trans]
+15.6 +8.6 63 +14 +16 1019.6 997.3
13 17.06 З 5
{9}
30 км 9/6 840 м
[Cu Sc Ac trans]
+15.7 +9.1 65 +15 +16 1019.8 997.6
14 17.06 ЮЗ 7
{9}
30 км 9/6 960 м
[Cu Sc Ac trans]
+16.7 +8.5 58 +16 +16 1019.8 997.6
15 17.06 ЮЗ 6
{10}
30 км 9/6 1000 м
[Cu Sc Ac trans]
+17.4 +9.5 60 +17 +18 1019.7 997.5
16 17.06 ЮЗ 6
{10}
30 км 9/6 1000 м
[Cu Sc Ac trans]
+17.6 +9.2 58 +17 +18 1019.8 997.6
17 17.06 З 6
{9}
30 км 9/4 1050 м
[Cu Sc Ac trans]
+17.4 +8.8 57 +17 +17 1020.0 997.8
18 17.06 ЮЗ 5
{10}
30 км 8/3 1000 м
[Cu hum Ac trans]
+16.9 +9.2 60 +16 +16 1020.2 998.0 +18.4
19 17.06 ЮЗ 4
{8}
30 км 8/3 1000 м
[Cu hum Ac trans]
+15.8 +9.4 66 +15 +15 1020.5 998.2
20 17.06 ЮЗ 3
{5}
30 км 9/9 1000 м
[Cu Sc]
+15.6 +9.8 68 +15 +15 1020.6 998.2
21 17.06 ЮЗ 2
{8}
30 км 8/8 1500 м
[Sc]
+15.6 +10.2 70 +16 +16 1020.9 998.5
22 17.06 Ю 2
{4}
25 км 8/8 1050 м
[Sc]
+15.6 +11.0 74 +16 +16 1020.8 998.5
23 17.06 ЮЗ 3
{5}
25 км 8/8 1050 м
[Sc]
+15.5 +10.9 74 +15 +15 1020.8 998.5
00 18.06 ЮЗ 4
{8}
25 км 9/8 1110 м
[Sc]
+15.5 +10.6 73 +15 +15 1020.6 998.3
01 18.06 ЮЗ 4
{6}
25 км 9/8 1110 м
[Sc]
+15.1 +10.7 75 +14 +14 1020.5 998.2
02 18.06 Ю 4
{6}
25 км 9/9 900 м
[Sc]
+14.9 +10.6 75 +14 +14 1020.3 998.0
03 18.06 Ю 3
{6}
25 км 9/9 870 м
[Sc]
+14.9 +10.7 76 +14 +14 1020.4 998.1
04 18.06 ЮЗ 3
{6}
25 км 9/8 800 м
[Sc]
+15.1 +10.8 75 +14 +14 1020.5 998.2
05 18.06 ЮЗ 5
{7}
25 км 9/8 800 м
[Cu Sc]
+15.4 +11.2 76 +14 +14 1020.7 998.4
06 18.06 ЮЗ 5
{8}
25 км 9/6 480 м
[Sc Ac trans Ci sp]
+16.0 +12.0 77 +15 +15 1020.6 998.3 +14.8
07 18.06 ЮЗ 5
{9}
25 км 9/8 480 м
[Sc]
+16.9 +12.9 77 +16 +17 1020.8 998.7
08 18.06 ЮЗ 5
{9}
25 км 9/9 210 м
[Sc]
+16.5 +13.8 84 +16 +16 1021.4 999.1
09 18.06 ЮЗ 6
{9}
6000 м в посл. час морось 9/9 180 м
[St]
+16.1 +14.8 92 +15 +15 1021.6 999.3
10 18.06 ЮЗ 5
{9}
4000 м слабая морось 9/9 90 м
[St]
+16.4 +14.9 91 +15 +16 1021.7 999.4
11 18.06 ЮЗ 5
{9}
20 км в посл. час морось 8/6 420 м
[Sc Ci sp]
+19.3 +15.3 78 +21 +24 комфорт 1021.4 999.4
12 18.06 ЮЗ 6
{12}
20 км {морось} 9/8 570 м
[Cu Sc Ac trans Ci sp]
+20.1 +15.2 73 +22 +23 комфорт 1021.6 999.6
13 18.06 ЮЗ 8
{10}
20 км 9/8 540 м
[Cu Sc Ci sp]
+19.2 +14.7 75 +20 +20 1021.7 999.7
14 18.06 З 8
{12}
20 км 9/9 720 м
[Cu Sc]
+19.6 +14.1 71 +21 +21 комфорт 1021.8 999.8
15 18.06 З 6
{12}
25 км 8/6 720 м
[Cu Sc Ci sp]
+19.7 +13.8 69 +21 +23 комфорт 1021.7 999.7
16 18.06 З 5
{10}
25 км 8/5 750 м
[Cu Sc Ci sp]
+19.4 +13.5 69 +21 +22 комфорт 1021.5 999.5
17 18.06 ЮЗ 6
{10}
25 км 8/8 750 м
[Cu Sc Ci sp]
+19.3 +13.1 67 +20 +20 1021.5 999.4
18 18.06 З 7
{12}
25 км {ливн. осадки} 5/5 960 м
[Cu Sc]
+18.3 +12.8 70 +18 +18 1021.6 999.5 +20.6
19 18.06 З 4
{9}
25 км 3/3 870 м
[Sc diur, vesp]
+18.3 +12.6 69 +19 +19 1021.9 999.8
20 18.06 ЮЗ 4
{7}
25 км 1/0
[Ci fib]
+17.1 +13.0 77 +17 +17 1022.1 999.9
21 18.06 ЮЗ 4
{9}
25 км 1/1 840 м
[Sc]
+16.6 +12.6 77 +16 +16 1022.9 1000.6
22 18.06 З 5
{7}
25 км 1/0
[Ci fib]
+15.2 +13.0 87 +14 +14 1023.3 1000.9
23 18.06 ЮЗ 5
{7}
25 км 1/0
[Ci fib]
+14.4 +11.6 83 +13 +13 1023.4 1000.9
00 19.06 ЮЗ 5
{9}
20 км 3/3 360 м
[St]
+13.5 +11.9 90 +11 +11 1023.5 1001.0
01 19.06 ЮЗ 5
{8}
15 км 9/9 210 м
[St]
+13.8 +12.6 92 +12 +12 1023.4 1000.9
02 19.06 ЮЗ 5
{7}
15 км 9/9 210 м
[St]
+14.6 +13.2 91 +13 +13 1023.5 1001.1
03 19.06 З 4
{8}
15 км 9/9 210 м
[St]
+14.9 +13.6 92 +14 +14 1023.7 1001.3
04 19.06 ЮЗ 5
{7}
15 км 9/9 180 м
[St]
+15.0 +13.9 93 +13 +13 1024.1 1001.7
05 19.06 ЮЗ 5
{8}
15 км 9/9 210 м
[Sc]
+15.4 +14.1 92 +14 +14 1024.3 1001.9
06 19.06 ЮЗ 5
{8}
15 км 9/9 210 м
[Sc]
+15.8 +14.2 90 +15 +15 1024.5 1002.1 +13.4
07 19.06 ЮЗ 4
{7}
15 км 9/9 210 м
[Sc]
+16.3 +14.7 90 +16 +16 1024.9 1002.6
08 19.06 ЮЗ 4
{7}
4000 м слабая морось 9/9 210 м
[Sc]
+15.9 +15.3 96 +15 +16 1025.2 1002.9
09 19.06 З 4
{7}
6000 м 9/9 210 м
[Frnb]
+16.2 +15.5 96 +15 +16 1025.3 1003.0
10 19.06 ЮЗ 3
{6}
6000 м дождь {морось} 9/9 240 м
[Sc]
+16.5 +15.6 94 +16 +17 1025.5 1003.2
11 19.06 З 4
{6}
8000 м в посл. час дождь 9/9 240 м
[Sc]
+17.4 +15.1 86 +17 +18 1025.5 1003.2
12 19.06 З 3
{7}
25 км {дождь, морось} 9/9 420 м
[Sc]
+18.3 +15.0 81 +19 +20 1025.5 1003.3 0.2
13 19.06 З 4
{6}
25 км 9/9 420 м
[Sc]
+18.3 +15.2 82 +19 +20 1025.4 1003.3
14 19.06 ЮЗ 3
{6}
25 км 9/9 450 м
[Sc]
+18.6 +15.4 82 +20 +21 1025.4 1003.3
15 19.06 ЮЗ 4
{6}
25 км 9/9 450 м
[Sc]
+19.0 +15.3 79 +20 +21 1025.2 1003.1
16 19.06 ЮЗ 3
{6}
25 км 9/9 500 м
[Sc]
+18.9 +15.5 81 +20 +21 1024.9 1002.8
17 19.06 З 3
{5}
25 км 9/9 500 м
[Cu Sc]
+19.2 +16.0 82 +21 +21 комфорт 1024.8 1002.7
18 19.06 ЮЗ 3
{6}
25 км 9/9 480 м
[Cu Sc]
+18.9 +16.2 84 +20 +20 1024.6 1002.5 +19.9 0.2
19 19.06 З 3
{5}
25 км 9/9 480 м
[Cu Sc]
+18.3 +16.1 87 +19 +19 1024.6 1002.4
20 19.06 З 2
{5}
25 км 9/9 450 м
[Cu Sc]
+17.9 +15.6 86 +18 +18 1024.7 1002.5
21 19.06 З 2
{5}
25 км в посл. час дождь 9/9 630 м
[Sc]
+17.7 +15.9 89 +18 +18 1024.9 1002.8
22 19.06 З 2
{3}
25 км 9/9 720 м
[Sc]
+17.5 +15.9 90 +18 +18 1024.9 1002.6
23 19.06 СЗ 1
{2}
25 км 9/9 270 м
[Sc]
+17.1 +15.6 91 +18 +18 1024.9 1002.6
00 20.06 З 2
{5}
25 км {дождь} 9/9 600 м
[Sc]
+16.8 +14.9 89 +17 +17 1024.6 1002.4
01 20.06 З 1
{3}
25 км 9/9 600 м
[Sc]
+16.5 +15.1 91 +17 +17 1024.2 1001.9
02 20.06 ЮЗ 1
{2}
25 км 9/9 500 м
[Sc]
+16.3 +14.7 90 +17 +17 1024.0 1001.7
03 20.06 Ю 1
{3}
25 км 9/9 500 м
[Sc]
+16.5 +14.6 89 +17 +17 1023.6 1001.3
04 20.06 ЮЗ 3
{4}
25 км 9/9 480 м
[Sc]
+16.6 +14.5 87 +16 +16 1023.4 1001.1
05 20.06 ЮЗ 3
{5}
25 км 8/8 480 м
[Sc]
+17.1 +14.3 84 +17 +17 1023.3 1001.1
06 20.06 ЮЗ 3
{5}
25 км 8/8 480 м
[Sc]
+17.7 +14.4 81 +18 +18 1023.0 1000.9 +16.2
07 20.06 ЮЗ 4
{6}
25 км 8/8 480 м
[Sc]
+18.6 +14.6 78 +19 +20 1023.0 1000.9
08 20.06 З 5
{6}
25 км 5/5 480 м
[Sc]
+19.6 +14.9 74 +21 +24 комфорт 1023.0 1001.0
09 20.06 ЮЗ 3
{8}
25 км 4/4 480 м
[Cu hum]
+20.7 +14.6 68 +24 +30 комфорт 1022.8 1000.8
10 20.06 З 3
{8}
25 км 4/4 480 м
[Cu hum]
+22.6 +15.1 63 +26 +34 жарко 1022.4 1000.6
11 20.06 З 3
{6}
25 км 4/4 480 м
[Cu hum]
+23.7 +15.3 59 +27 +35 жарко 1021.9 1000.2
12 20.06 нст 2
{8}
25 км 1/1 900 м
[Cu hum]
+24.6 +14.3 53 +27 +43 жарко 1021.3 999.7
13 20.06 З 3
{8}
25 км 1/1 900 м
[Cu hum]
+25.1 +14.6 52 +28 +40 жарко 1020.8 999.2
14 20.06 З 2
{7}
25 км 1/1 900 м
[Cu hum]
+25.4 +15.2 53 +28 +41 жарко 1020.3 998.8
15 20.06 З 4
{8}
25 км 1/1 1350 м
[Cu hum]
+25.9 +14.9 51 +29 +35 душно 1019.9 998.4
16 20.06 З 4
{8}
25 км 1/1 1350 м
[Cu hum]
+25.5 +13.2 46 +27 +32 жарко 1019.7 998.1
17 20.06 З 4
{7}
25 км 1/1 1350 м
[Cu hum]
+25.2 +14.1 50 +28 +30 жарко 1019.3 997.7
18 20.06 З 4
{8}
25 км 1/1 1410 м
[Cu hum]
+24.4 +13.5 51 +27 +28 жарко 1019.1 997.5 +26.2
19 20.06 СЗ 2
{6}
25 км 1/1 1410 м
[Cu hum]
+22.7 +14.8 61 +26 +27 жарко 1018.9 997.2
20 20.06 З 2
{5}
25 км 1/1 1410 м
[Cu hum]
+21.1 +14.7 67 +24 +24 комфорт 1019.1 997.2
21 20.06 З 2
{6}
25 км 1/0
[Ci fib]
+19.6 +15.0 75 +22 +22 комфорт 1019.4 997.5
22 20.06 ЮЗ 2
{4}
25 км 1/0
[Ci fib]
+18.8 +14.6 77 +20 +20 1019.1 997.1
23 20.06 З 3
{5}
25 км 1/0
[Ci fib]
+18.0 +14.3 79 +18 +18 1018.9 996.9
00 21.06 З 3
{6}
25 км 1/0
[Ci fib]
+16.5 +13.8 84 +16 +16 1019.0 996.8
01 21.06 ЮЗ 4
{5}
25 км 1/0
[Ci fib]
+16.3 +13.6 84 +16 +16 1018.5 996.3
02 21.06 ЮЗ 4
{6}
25 км 1/0
[Ci fib]
+15.5 +13.4 87 +15 +15 1018.1 995.9
03 21.06 З 4
{7}
25 км 1/0
[Ci fib]
+14.5 +13.4 93 +13 +13 1018.0 995.7
04 21.06 З 4
{7}
12 км 8/8 180 м
[St]
+14.5 +13.5 94 +13 +13 1018.0 995.7
05 21.06 З 4
{8}
2800 м слабая морось 9/9 120 м
[St]
+14.3 +13.7 96 +13 +13 1018.4 996.1
06 21.06 З 3
{8}
4800 м в посл. час морось 9/9 120 м
[St]
+14.5 +13.7 95 +14 +14 1018.9 996.5 +14.1 0.2
07 21.06 З 3
{7}
7000 м 9/9 150 м
[St]
+14.5 +12.5 88 +14 +14 1019.6 997.2
08 21.06 СЗ 3
{9}
20 км 6/6 420 м
[Cu Sc Ci fib]
+14.9 +10.8 76 +14 +17 1020.5 998.1
09 21.06 СЗ 6
{9}
20 км 6/6 660 м
[Cu Sc]
+14.1 +8.0 67 +12 +14 1021.5 999.1
10 21.06 СЗ 4
{10}
20 км 6/6 660 м
[Cu Sc Ci fib]
+16.0 +6.4 53 +15 +20 1022.0 999.6
11 21.06 СЗ 4
{9}
20 км 4/4 1200 м
[Cu hum Ci fib]
+16.0 +5.4 49 +15 +22 1022.2 999.9
12 21.06 СЗ 6
{10}
20 км 3/3 1410 м
[Cu hum Ci fib]
+17.2 +4.1 42 +16 +21 1022.5 1000.2
13 21.06 С 6
{11}
20 км 3/3 1410 м
[Cu hum Ci fib]
+16.8 +4.5 44 +16 +20 1023.2 1000.9
14 21.06 С 6
{10}
20 км 3/3 1410 м
[Cu hum]
+15.4 +3.8 46 +14 +18 1023.9 1001.5
15 21.06 СЗ 6
{12}
20 км 3/3 1410 м
[Cu hum]
+15.5 +3.4 44 +14 +17 1024.7 1002.3
16 21.06 С 5
{12}
20 км 3/3 1410 м
[Cu hum]
+14.3 +3.1 47 +13 +15 1025.5 1002.9
17 21.06 С 6
{11}
20 км 3/3 1410 м
[Cu hum]
+14.6 +5.3 54 +13 +14 1025.8 1003.2
18 21.06 С 5
{12}
20 км 4/4 960 м
[Cu Sc]
+13.2 +6.1 62 +11 +12 1026.3 1003.6 +18.4
19 21.06 СЗ 6
{9}
20 км 3/3 960 м
[Cu Sc]
+13.1 +5.1 58 +11 +11 1026.7 1004.0
20 21.06 СЗ 4
{9}
20 км 1/1 960 м
[Cu hum]
+11.5 +3.6 58 +10 +10 1027.3 1004.5
21 21.06 СЗ 2
{9}
20 км ясно +10.3 +4.9 69 +9 +9 1027.9 1004.9
22 21.06 СЗ 2
{5}
20 км ясно +9.4 +4.8 73 +8 +8 1028.3 1005.3
23 21.06 СЗ 2
{5}
20 км ясно +8.4 +5.0 79 +7 +7 1028.2 1005.1
00 22.06 З 1
{9}
20 км ясно +7.5 +5.0 84 +7 +7 1028.3 1005.1
01 22.06 З 2
{3}
20 км ясно +7.3 +5.0 85 +5 +5 1028.1 1004.9
02 22.06 ЮЗ 3
{4}
20 км ясно +7.0 +4.9 86 +4 +4 1028.0 1004.8
03 22.06 З 3
{4}
20 км 1/0
[Ci fib]
+6.7 +4.9 88 +4 +4 1028.0 1004.8
04 22.06 З 3
{4}
20 км 1/0
[Ci fib]
+6.5 +4.7 88 +3 +3 1028.2 1005.0
05 22.06 З 3
{6}
20 км 3/1 1500 м
[Sc Ci sp]
+7.2 +4.9 85 +4 +5 1028.3 1005.1
06 22.06 З 3
{7}
20 км 1/1 1500 м
[Sc]
+10.2 +6.1 76 +8 +10 1028.1 1005.1 +6.4
07 22.06 З 3
{7}
20 км 1/1 1500 м
[Sc]
+12.1 +7.2 72 +11 +15 1028.2 1005.4
08 22.06 З 4
{9}
20 км 4/4 750 м
[Cu Sc]
+14.1 +7.8 66 +13 +16 1028.1 1005.5
09 22.06 СЗ 4
{9}
20 км 4/4 750 м
[Cu Sc]
+15.1 +6.4 56 +14 +19 1028.1 1005.6
10 22.06 С 6
{12}
20 км 4/4 750 м
[Cu Sc]
+17.0 +3.6 41 +16 +20 1027.8 1005.4
11 22.06 СЗ 5
{10}
20 км 3/3 1350 м
[Cu Sc]
+16.0 +3.9 44 +15 +21 1028.1 1005.6
12 22.06 СЗ 5
{12}
20 км 3/3 1350 м
[Cu Sc Ci fib]
+17.1 +3.5 40 +16 +23 1028.0 1005.6
13 22.06 СЗ 4
{11}
20 км 3/3 1350 м
[Cu Sc Ci fib]
+16.9 +3.7 41 +16 +24 1028.1 1005.7
14 22.06 С 6
{11}
20 км 3/3 1350 м
[Cu Sc Ci fib]
+18.1 +4.6 41 +18 +21 1028.1 1005.8
15 22.06 СЗ 6
{11}
20 км 4/4 1350 м
[Cu Sc Ci fib]
+17.4 +5.5 45 +17 +19 1028.4 1006.0
16 22.06 С 6
{10}
20 км 4/4 1350 м
[Cu Sc Ci fib]
+16.4 +4.9 46 +15 +17 1028.6 1006.2
17 22.06 С 5
{11}
20 км 4/4 1350 м
[Cu Sc]
+15.3 +4.4 48 +14 +15 1028.9 1006.3
18 22.06 С 4
{11}
20 км 5/4 1230 м
[Cu Sc Ci sp]
+15.4 +5.3 51 +15 +15 1028.8 1006.2 +18.6
19 22.06 С 4
{9}
20 км 5/4 1230 м
[Cu Sc Ci sp]
+13.8 +6.2 60 +12 +13 1029.0 1006.4
20 22.06 С 3
{8}
20 км 3/3 1200 м
[Sc diur, vesp]
+12.5 +6.8 68 +11 +11 1029.3 1006.6
21 22.06 С 3
{9}
20 км 6/6 1080 м
[Sc]
+11.7 +6.9 72 +10 +10 1029.8 1007.0
22 22.06 С 2
{4}
20 км 8/8 1000 м
[Sc]
+11.3 +7.2 76 +10 +10 1029.8 1007.0
23 22.06 СЗ 2
{4}
20 км 8/8 960 м
[Sc]
+10.6 +7.0 78 +9 +9 1030.0 1007.1
00 23.06 СЗ 2
{9}
20 км 5/5 960 м
[Sc]
+9.6 +6.8 83 +8 +8 1029.9 1006.9
01 23.06 СЗ 2
{4}
20 км 3/3 960 м
[Sc diur, vesp]
+8.7 +6.5 86 +7 +7 1029.7 1006.6
02 23.06 СЗ 1
{3}
20 км ясно +7.8 +6.2 90 +7 +7 1029.3 1006.2

 

Местоположение метеостанции Charleroi (Бельгия): широта 50.47 долгота 4.45 высота над уровнем моря 192 м.

В архиве по умолчанию представлена погода в Charleroi за последнюю неделю. Архивные данные за месяц целиком и за предыдущие месяцы, начиная с января 2011 года, Вы можете получить, выбрав интересующий диапазон дат из раскрывающегося списка и нажав кнопку "Ввод!".


*Определитесь, кто Вы:
робот инопланетянин человек

Внимание! Время в таблицах - всемирное. Для получения местного времени необходимо прибавить поправку, которая в Charleroi равна 1 ч.

Смотрите также архив погоды в соседних городах и на ближайших метеорологических станциях:

Погода в Ernage (Бельгия) (28 км)
Погода в Florennes (Бельгия) (30 км)
Погода в Uccle (Бельгия) (37 км)
Погода в Beauvechain (Бельгия) (38 км)
Погода в Dourbes (Бельгия) (43 км)
Погода в Chievres (Бельгия) (45 км)
Погода в Bruxelles (Бельгия) (48 км)
Погода в Humain (Бельгия) (64 км)
Погода в Melle (Бельгия) (72 км)
Погода в Schaffen (Бельгия) (73 км)

Пояснения к столбцам:

Ветер - указаны скорость ветра в м/с - средняя за 10 мин, порывы в срок и между сроками (в фигурных скобках) и направление, откуда дует ветер: С - северный, СВ - северо-восточный, В - восточный, ЮВ - юго-восточный, Ю - южный, ЮЗ - юго-западный, З - западный, СЗ - северо-западный.
Видимость - горизонтальная дальность видимости в метрах или километрах. При видимости от 1 до 10 км при отсутствии осадков обычно наблюдается дымка, при ухудшении видимости до 1 км и менее - туман. В сухую погоду видимость может ухудшаться дымом, пылью или мглою.
Явления - указаны атмосферные явления, наблюдавшиеся в срок или в последний час перед сроком; фигурными скобками обозначены явления, наблюдавшиеся между сроками (за 1-3 часа до срока); квадратными скобками обозначены град или гололедные отложения с указанием их диаметра в мм.
Облачность - указаны через наклонную черту общая и нижняя облачность в баллах и высота нижней границы облаков в метрах; квадратными скобками обозначены формы облаков: Ci - перистые, Cs - перисто-слоистые, Cc - перисто-кучевые, Ac - высококучевые, As - высокослоистые, Sc - слоисто-кучевые, Ns - слоисто-дождевые, Cu - кучевые, Cb - кучево-дождевые. Подробнее классификацию облаков см. в Атласе облаков (PDF).
T - Температура воздуха - температура, измеренная на высоте 2 м над землей.
Td - Температура точки росы - температура, при понижении до которой содержащийся в воздухе водяной пар достигнет насыщения.
f - Относительная влажность воздуха - влажноcть воздуха, измеренная на высоте 2 м над землей.
Te - Эффективная температура - температура, которую ощущает одетый по сезону человек в тени. Характеристика душности погоды. При расчете учитывается влияние влажности воздуха и скорости ветра на теплоощущения человека.
Tes - Эффективная температура на солнце - температура, которую ощущает человек, с поправкой на солнечный нагрев. Характеристика знойности погоды. Зависит от высоты солнца над горизонтом, облачности и скорости ветра. Ночью, в пасмурную погоду, а также при ветре 12 м/с и более поправка равна нулю.
P - Атмосферное давление - приведенное к уровню моря атмосферное давление.
Po - Атмосферное давление - измеренное на уровне метеостанции атмосферное давление.
Tmin - Минимальная температура - минимум температуры воздуха на высоте 2 м над землей.
Tmax - Максимальная температура - максимум температуры воздуха на высоте 2 м над землей.
R - Количество осадков - Количество выпавших осадков за период времени, мм. При наведении курсора мыши на число - период времени, за который выпало указанное количество осадков.
R24 - Количество осадков - Количество выпавших осадков за 24 часа, мм.
S - Снежный покров - Высота снежного покрова, см. При наведении курсора мыши на число - состояние снежного покрова и степень покрытия местности в баллах.